Regional Weather Roundup
Issued by NWS Grand Forks, ND

Home | Current Version | Previous Version | Graphics & Text | Print | Product List | Glossary On
Versions: 1 2 3 4 5 6 7 8 9 10 11 12 13 14 15 16 17 18 19 20 21 22 23 24 25 26 27 28 29 30 31 32 33 34 35 36 37 38 39 40 41 42 43 44 45 46 47 48 49 50
000
ASUS43 KFGF 220431
RWRFGF
PRAIRIE TO PINES  WEATHER ROUNDUP
NATIONAL WEATHER SERVICE EASTERN NORTH DAKOTA/GRAND FORKS ND
1100 PM CDT TUE OCT 21 2014

 **SATELLITE DATA USED TO AUGMENT SKY COVER AT AUTOMATED STATIONS**
 *****  WEATHER ACROSS EASTERN NORTH DAKOTA  *****

CITY           SKY/WX    TMP DP  RH WIND       PRES   REMARKS
GRAND FORKS    CLEAR     53  41  63 S21G32    29.86S
GRAND FRKS AFB CLEAR     55  42  61 S20G26    29.85S
GRAND FRKS NWS   N/A     52 N/A N/A SE30        N/A
DEVILS LAKE    CLEAR     59  43  55 S25G33    29.73F
FARGO          CLEAR     57  41  55 SE25G40   29.91S
WAHPETON ARPT  CLEAR     54  37  54 SE22G28   29.95F
$$

 ***** WEATHER ACROSS CENTRAL AND WESTERN NORTH DAKOTA  *****

CITY           SKY/WX    TMP DP  RH WIND       PRES   REMARKS
BISMARCK       CLEAR     66  38  35 SE18      29.67F
MINOT          CLEAR     67  44  43 S20G31    29.58F
JAMESTOWN      PTCLDY    59  44  57 SE16      29.79F
MINOT AFB      CLEAR     56  48  76 S10       29.58F
GARRISON         N/A     65  48  54 S13       29.61S
WILLISTON      PTCLDY    46  40  79 CALM      29.60R
DICKINSON      PTCLDY    57  43  59 W5        29.63R
HETTINGER      PTCLDY    63  44  50 S9        29.67S
$$

 *****  OTHER AIRPORT OBSERVATIONS IN OUR AREA  *****

CITY           SKY/WX    TMP DP  RH WIND       PRES   REMARKS
WALHALLA         N/A     55  41  58 S17G26    29.78S
GRAFTON AIRPOR FAIR      54  41  62 S20G26    29.84S
VALLEY CITY AR FAIR      55  41  58 S16G22    29.84F
CANDO          FAIR      59  45  58 S20G30    29.72S
CAVALIER APRT  FAIR      54  41  62 S18G26    29.81F
GWINNER        CLEAR     55  41  58 SE14      29.89S
SHEYENNE NWR     N/A     57  41  55 SE17      29.95S
ROLLA          FAIR      57  43  58 S21G26    29.70S
 ***** THE ABOVE OBSERVATIONS ARE NON NWS ARE NOT QUALITY
       CONTROLLED AND MAY MIS-REPORT RAIN FOR SNOW...
$$

  *****  WEATHER ACROSS NORTHERN MINNESOTA  *****

CITY           SKY/WX    TMP DP  RH WIND       PRES   REMARKS
FLAG ISLAND    CLEAR     46  41  81 S30       29.95S
WARROAD        CLEAR     48  41  76 S12G21    29.95S
ROSEAU         CLEAR     52  39  62 S16G22    29.92F
HALLOCK        CLEAR     54  39  58 S21G26    29.85S
THF RVR FALLS  CLEAR     52  39  62 SE16G22   29.93S
BAUDETTE       CLEAR     44  36  73 SE10G22   30.00F
WASKISH        CLEAR     46  37  71 SE14G22   30.02F
CROOKSTON      CLEAR     54  41  62 S22G29    29.91S
STEPHEN NDAWN    N/A     55  43  62 S20         N/A
GREENBUSH NDAW   N/A     52  39  62 S20         N/A
$$
  *****  WEATHER ACROSS CENTRAL AND WEST MINNESOTA  *****

CITY           SKY/WX    TMP DP  RH WIND       PRES   REMARKS
FOSSTON        CLEAR     50  37  62 SE20G28   29.97S
BEMIDJI        CLEAR     47  38  71 SE12      30.04S
PARK RAPIDS    CLEAR     47  38  71 SE16      30.05S
ELBOW LAKE     FAIR      52  40  64 SE20G25   30.00S
WADENA         CLEAR     46  37  71 SE13      30.05S
DETROIT LAKES  FAIR      50  41  71 SE17      30.01R
MOORHEAD       CLEAR     55  43  62 SE24G30   29.93F
FERGUS FALLS   CLEAR     54  37  54 SE21G28   30.00S
MORRIS MN      CLEAR     52  41  66 SE17      30.01S
STAPLES        CLEAR     48  37  66 SE10G17   30.07F
$$
  *****  WEATHER ELSEWHERE ACROSS MINNESOTA  *****

CITY           SKY/WX    TMP DP  RH WIND       PRES   REMARKS
DULUTH         PTCLDY    39  36  89 SE7       30.20S
INTRNTL FALLS  CLEAR     39  34  82 SE10      30.09S
ELY            CLEAR     37  36  93 S8        30.19S
CLOQUET        CLEAR     37  36  93 E5        30.19S
WHEATON        CLEAR     52  39  62 SE18      29.98S
BRAINERD       CLEAR     46  38  73 SE9       30.12F
HIBBING        CLEAR     36  33  89 SE7       30.17S
ALEXANDRIA     CLEAR     49  40  71 SE15      30.06S
SAINT CLOUD    CLEAR     50  38  63 SE9       30.13S
MINNEAPOLIS    CLEAR     47  37  68 SE13      30.18R
$$

  *****  WEATHER ACROSS SOUTH DAKOTA  *****

CITY           SKY/WX    TMP DP  RH WIND       PRES   REMARKS
SIOUX FALLS    CLEAR     58  42  55 SE17      30.02S
BROOKINGS      NOT AVBL
WATERTOWN      CLEAR     57  41  55 S17G24    29.96S
HURON          PTCLDY    63  43  48 S16G26    29.89S
SISSETON         N/A     54  42  64 S14       29.94S
ABERDEEN       CLEAR     64  44  48 S23G29    29.85S
MITCHELL       PTCLDY    63  43  48 SE22G28   29.93F
PIERRE         CLEAR     65  43  44 SE18      29.77F
MOBRIDGE       PTCLDY    65  44  46 SE15      29.72R
RAPID CITY     MOCLDY    60  43  53 S7        29.77R
$$

  *****  SOME WEATHER IN NEARBY STATES *****

CITY           SKY/WX    TMP DP  RH WIND       PRES   REMARKS
GLASGOW MT     PTCLDY    54  45  71 W14       29.69R
GREAT FALLS MT MOCLDY    44  38  79 SW14      29.87R
CHEYENNE WY    LGT RAIN  55  41  59 NW13G21   29.99S
SCOTTSBLUFF NE CLOUDY    59  47  64 N3        29.88S
OMAHA NE       CLEAR     57  42  57 SE13      30.08R
DES MOINES IA  CLEAR     53  40  61 SE10      30.17R
DAVENPORT IA   CLEAR     40  34  79 E7        30.26R
CHICAGO IL     MOCLDY    47  38  71 N3        30.25F
EAU CLAIRE WI  CLEAR     41  34  76 S3        30.24S
LA CROSSE WI   CLEAR     45  36  70 E3        30.26R
$$

  *****  SOME NATIONAL WEATHER *****

CITY           SKY/WX    TMP DP  RH WIND       PRES   REMARKS
LA GUARDIA NY  MOCLDY    58  52  80 NE10      29.90S
RALEIGH NC     MOCLDY    57  39  51 NW8       29.94F
ATLANTA GA     CLEAR     57  47  69 NW5       30.02S
NEW ORLEANS LA PTCLDY    65  57  75 CALM      30.03S
OKLAHOMA CITY  CLEAR     63  57  81 SE6       30.07S
ALBUQUERQUE NM PTCLDY    57  47  69 SE6       30.11R
SALT LAKE CITY PTCLDY    49  34  56 N13       30.06R
LOS ANGELES CA CLEAR     68  63  84 CALM      29.86S
BOISE ID       CLEAR     48  41  76 SE9       30.05S
SEATTLE WA     MOCLDY    59  45  59 S14       29.81F
$$

*** WEATHER ACROSS MANITOBA...SASKATCHEWAN AND ONTARIO ***
                ***ONTARIO***

CITY           SKY/WX    TMP DP  RH WIND       PRES   REMARKS
GERALDTON      CLEAR     30  28  93 S5        30.28S
THUNDER BAY    MOCLDY    30  28  93 CALM      30.29S
SIOUX LOOKOUT  CLEAR     39  34  81 S10G21    30.09F
TORONTO        LGT RAIN  43  37  81 NE15      30.17R
BIG TROUT LK   CLEAR     43  34  70 S15G23    29.96F
PICKLE LAKE    NOT AVBL
DRYDEN         CLEAR     39  34  81 S14G24    30.06S
KENORA         PTCLDY    45  36  70 S16G25    29.98F
$$
                *** MANITOBA***

CITY           SKY/WX    TMP DP  RH WIND       PRES   REMARKS
BRANDON        CLEAR     55  45  67 SE10      29.66F
DAUPHIN        PTCLDY    52  45  76 SE10      29.65F
ISLAND LAKE    CLEAR     46  37  71 S9G20     29.83R
PILOT MOUND      N/A     57  43  58 S28G33      N/A
THE PAS        CLEAR     45  41  87 SE14      29.57F
THOMPSON       CLEAR     48  41  76 SW8       29.63S
WINNIPEG       CLEAR     54  39  58 S24G32    29.80F
LYNN LAKE      CLEAR     37  37 100 SE2       29.53S FOG
CHURCHILL      CLOUDY    37  37 100 SE3       29.63S
GILLAM         CLEAR     48  39  71 S9        29.67S
$$
                ***SASKATCHEWAN***

CITY           SKY/WX    TMP DP  RH WIND       PRES   REMARKS
ESTEVAN        PTCLDY    46  41  81 SE3       29.57F
KINDERSLEY     LGT RAIN  48  46  93 NW10      29.67
LLOYDMINSTER   MOCLDY    48  37  66 NW10      29.68S
PRINCE ALBERT  LGT RAIN  57  41  54 N6        29.56R
REGINA         MOCLDY    52  43  71 SE9       29.56F
YORKTON        CLEAR     48  41  76 SE6       29.60F
N. BATTLEFORD  LGT RAIN  52  45  76 W9        29.67R
LA RONGE       CLOUDY    52  41  66 W9        29.58R
SASKATOON      MOCLDY    52  39  62 NW9       29.58R
SWIFT CURRENT  MOCLDY    50  41  71 W13G20    29.66R
$$
NOTE: THESE ARE AUTOMATED STATIONS WITH LIMITED QUALITY CONTROL
      "FAIR" INDICATES FEW OR NO CLOUDS BELOW 12,000 FEET WITH NO
      SIGNIFICANT WEATHER AND/OR OBSTRUCTIONS TO VISIBILITY.
      SKY/WX - SKY CONDITION AND SIGNIFICANT WEATHER.
      TMP - AIR TEMPERATURE.    DP   - DEWPOINT TEMPERATURE.
      RH  - RELATIVE HUMIDITY.  PRES - PRESSURE.
      HX  - HEAT INDEX.         WCI  - WIND CHILL INDEX.
$



USA.gov is the U.S. government's official web portal to all federal, state and local government web resources and services.